[[{"header":{"parameterUnit":"m.s-1","parameterCategory":1,"la1":30.2991,"la2":30.254,"lo1":-89.0895,"lo2":-89.0444,"dy":0.0017,"dx":0.0017,"nx":28,"ny":28,"refTime":"2023-09-27T21:00:00:Z","depth":0,"parameterNumber":2,"parameterNumberName":"U-component_of_WINDS"},"data":[0,0,0,0,0,0,0,0,0,0,0,0,0,0,0,0,0,0,0,0,0,0,0,0,0,0,0,0,0,0,0,0,0,0,0,0,0,0,0,0,0,0,0,0,0,0,0,0,0,0,0,0,0,0,0,0,0,0,-5.0782,-5.0783,0,-5.0849,-5.085,-5.085,-5.0754,-5.0751,-5.0747,-5.0744,-5.081,-5.0815,-5.082,0,0,0,0,0,0,0,0,0,0,0,0,0,-5.057,-5.0575,-5.0782,-5.0783,-5.0784,-5.0849,-5.085,-5.0851,-5.0755,-5.075,-5.0746,-5.0743,-5.0809,-5.0815,-5.0821,0,0,0,0,0,0,0,0,0,0,0,0,0,-5.0652,-5.0576,-5.0782,-5.0744,-5.0741,-5.0849,-5.085,-5.0851,-5.0755,-5.075,-5.0745,-5.0741,-5.0807,-5.0814,-5.0821,-5.0969,0,0,-5.0844,-5.0847,0,0,0,0,0,0,0,0,-5.0648,-5.066,-5.0749,-5.0747,-5.0744,-5.0788,-5.0799,-5.089,-5.0757,-5.075,-5.0744,-5.0738,-5.0807,-5.0814,-5.0838,-5.0972,-5.0975,-5.0845,-5.0849,-5.0852,-5.0854,0,0,0,0,0,0,0,-5.0642,-5.0657,-5.0808,-5.075,-5.0747,-5.0723,-5.0729,-5.0816,-5.0806,-5.075,-5.0743,-5.0753,-5.0805,-5.0831,-5.0838,-5.0976,-5.0844,-5.0851,-5.0856,-5.0858,-5.1234,-5.124,0,0,0,0,0,0,-5.0641,-5.0653,-5.0806,-5.081,-5.0682,-5.0731,-5.0738,-5.0779,-5.0805,-5.0804,-5.0757,-5.0748,-5.0821,-5.083,-5.084,-5.1015,-5.0852,-5.0859,-5.0863,-5.1229,-5.1236,-5.1242,0,0,0,0,0,0,-5.0637,-5.0656,-5.0804,-5.073,-5.0747,-5.074,-5.0787,-5.0783,-5.0809,-5.081,-5.0808,-5.0786,-5.0817,-5.083,-5.0938,-5.1016,-5.0862,-5.0869,-5.1222,-5.1231,-5.1239,-5.1365,0,0,0,0,0,0,-5.0632,-5.0655,-5.0711,-5.0732,-5.0751,-5.0901,-5.0792,-5.0788,-5.0822,-5.0811,-5.0836,-5.0836,-5.0814,-5.0927,-5.0945,-5.1023,-5.0875,-5.1215,-5.1226,-5.1236,-5.1353,-5.1376,-5.1396,0,0,0,0,0,-5.0624,-5.0744,-5.0715,-5.0734,-5.0821,-5.0905,-5.0916,-5.089,-5.0829,-5.0885,-5.0886,-5.0835,-5.1005,-5.0939,-5.0958,-5.104,-5.121,-5.1223,-5.1235,-5.1344,-5.1372,-5.1395,0,0,0,0,0,0,-5.0732,-5.0746,-5.0714,-5.0843,-5.0874,-5.0889,-5.0959,-5.092,-5.0968,-5.0955,-5.092,-5.0926,-5.1042,-5.1051,-5.0978,-5.1184,-5.1097,-5.1114,-5.1173,-5.12,-5.122,-5.1215,-5.0881,0,0,0,0,0,-5.0771,-5.0838,-5.0846,-5.096,-5.0977,-5.0966,-5.1001,-5.0978,-5.1008,-5.1021,-5.1029,-5.106,-5.112,-5.116,-5.1216,-5.1355,-5.1359,-5.142,-5.1441,-5.1459,-5.1473,-5.1548,-5.1575,-5.1283,-5.1283,-5.1282,0,0,-5.0851,-5.0867,-5.0912,-5.0982,-5.1003,-5.1074,-5.0977,-5.1056,-5.1107,-5.1032,-5.1135,-5.1142,-5.1174,-5.1298,-5.1353,-5.131,-5.1555,-5.1475,-5.1488,-5.1494,-5.1563,-5.1591,-5.1616,-5.1291,-5.129,-5.1288,0,0,-5.1034,-5.1054,-5.115,-5.1174,-5.1207,-5.1199,-5.1222,-5.1244,-5.1246,-5.1349,-5.1294,-5.1355,-5.1459,-5.1484,-5.1511,-5.1705,-5.1659,-5.1724,-5.1834,-5.1907,-5.193,-5.195,-5.2019,-5.2044,-5.1739,-5.1739,-5.1739,0,-5.113,-5.1234,-5.1205,-5.1288,-5.132,-5.1256,-5.1354,-5.1378,-5.1427,-5.1451,-5.1402,-5.1532,-5.1549,-5.1678,-5.1726,-5.1749,-5.1775,-5.172,-5.1929,-5.1949,-5.1967,-5.2033,-5.2059,-5.1746,-5.1746,-5.1745,-5.1744,0,-5.1351,-5.1424,-5.1498,-5.1549,-5.1589,-5.1679,-5.1663,-5.1708,-5.1681,-5.1679,-5.1784,-5.1802,-5.186,-5.1889,-5.1864,-5.2015,-5.1987,-5.1935,-5.1846,-5.2003,-5.2064,-5.2089,-5.1757,-5.1755,-5.1752,-5.175,0,0,-5.1602,-5.1636,-5.1664,-5.1686,-5.1719,-5.1775,-5.1862,-5.1919,-5.1958,-5.1995,-5.2067,-5.2157,-5.2109,-5.2139,-5.2116,-5.218,-5.2333,-5.2119,-5.2119,-5.2158,-5.2501,-5.254,-5.257,-5.2304,-5.2308,-5.2312,-5.2498,0,-5.1784,-5.1935,-5.1912,-5.2057,-5.2124,-5.2066,-5.2141,-5.217,-5.2169,-5.2226,-5.2225,-5.229,-5.2221,-5.2239,-5.23,-5.2302,-5.2401,-5.2288,-5.237,-5.2373,-5.2363,-5.2602,-5.2644,-5.2818,-5.2522,-5.2526,-5.2529,0,-5.2017,-5.2064,-5.2216,-5.2239,-5.2266,-5.2335,-5.2386,-5.2441,-5.2472,-5.2468,-5.2502,-5.2468,-5.2555,-5.2466,-5.2585,-5.2508,-5.2541,-5.2547,-5.2553,-5.2559,-5.246,-5.2614,-5.2873,-5.29,-5.2566,-5.2563,-5.256,0,-5.2185,-5.2286,-5.239,-5.2411,-5.244,-5.249,-5.2504,-5.253,-5.2567,-5.2611,-5.2635,-5.2689,-5.2719,-5.2761,-5.2743,-5.268,-5.2865,-5.2775,-5.2863,-5.2864,-5.2904,-5.2902,-5.3173,-5.2926,-5.2926,-5.2926,-5.2925,0,-5.2391,-5.2487,-5.2466,-5.253,-5.2636,-5.2607,-5.2713,-5.272,-5.2744,-5.2808,-5.276,-5.2821,-5.2793,-5.2853,-5.2839,-5.2939,-5.2953,-5.2952,-5.2947,-5.2956,-5.2956,-5.2976,-5.2963,-5.2932,-5.2931,-5.293,-5.2928,0,-5.2596,-5.2586,-5.2696,-5.2715,-5.2722,-5.2799,-5.2815,-5.2875,-5.2872,-5.2954,-5.2971,-5.2966,-5.3034,-5.302,-5.3094,-5.3084,-5.3211,-5.3191,-5.3201,-5.3196,-5.3285,-5.3277,-5.3577,-5.3615,-5.3345,-5.3348,-5.335,0,-5.2728,-5.28,-5.2828,-5.2868,-5.2886,-5.2951,-5.2988,-5.2964,-5.3004,-5.3046,-5.3101,-5.3164,-5.3214,-5.3324,-5.3327,-5.3383,-5.3364,-5.3466,-5.3372,-5.338,-5.3366,-5.3362,-5.3369,-5.3484,-5.3487,-5.349,-5.3492,0,-5.2963,-5.2955,-5.301,-5.3065,-5.3111,-5.3153,-5.319,-5.3225,-5.3204,-5.3252,-5.3321,-5.3359,-5.3436,-5.3499,-5.3552,-5.3566,-5.3526,-5.3521,-5.3545,-5.3555,-5.3557,-5.3557,-5.3251,-5.3514,-5.3512,-5.351,-5.3509,-5.3508,-5.3135,-5.3197,-5.3226,-5.329,-5.3315,-5.3352,-5.3409,-5.3413,-5.3471,-5.3531,-5.3513,-5.3592,-5.3621,-5.3688,-5.3708,-5.3769,-5.3731,-5.3765,-5.3774,-5.3783,-5.3793,-5.3548,-5.3779,-5.3778,-5.3777,-5.3777,-5.3776,0,-5.3367,-5.3384,-5.3443,-5.3497,-5.3547,-5.3506,-5.3545,-5.3589,-5.3659,-5.3691,-5.3741,-5.382,-5.3882,-5.389,-5.3948,-5.3996,-5.3979,-5.4012,-5.4008,-5.4012,-5.3824,-5.3798,-5.4025,-5.4025,-5.4025,-5.4025,-5.4025,-5.4025,-5.3494,-5.3597,-5.3592,-5.3707,-5.3722,-5.3799,-5.3825,-5.3858,-5.3883,-5.3974,-5.4025,-5.403,-5.4052,-5.4112,-5.4167,-5.4168,-5.4191,-5.4232,-5.4226,-5.405,-5.4025,-5.4001,-5.3977,-5.4237,-5.4238,-5.4408,-5.441,-5.4411]},{"header":{"parameterUnit":"m.s-1","parameterCategory":1,"la1":30.2991,"la2":30.254,"lo1":-89.0895,"lo2":-89.0444,"dy":0.0017,"dx":0.0017,"nx":28,"ny":28,"refTime":"2023-09-27T21:00:00:Z","depth":0,"parameterNumber":3,"parameterNumberName":"V-component_of_WINDS"},"data":[0,0,0,0,0,0,0,0,0,0,0,0,0,0,0,0,0,0,0,0,0,0,0,0,0,0,0,0,0,0,0,0,0,0,0,0,0,0,0,0,0,0,0,0,0,0,0,0,0,0,0,0,0,0,0,0,0,0,-2.6855,-2.6854,0,-2.6798,-2.6797,-2.6796,-2.6723,-2.6721,-2.672,-2.6719,-2.6662,-2.6662,-2.6661,0,0,0,0,0,0,0,0,0,0,0,0,0,-2.69,-2.6899,-2.6855,-2.6854,-2.6854,-2.6798,-2.6797,-2.6796,-2.6723,-2.6721,-2.672,-2.6718,-2.6662,-2.6662,-2.6661,0,0,0,0,0,0,0,0,0,0,0,0,0,-2.6865,-2.6899,-2.6855,-2.681,-2.6805,-2.6798,-2.6797,-2.6796,-2.6723,-2.6721,-2.6719,-2.6718,-2.6662,-2.6662,-2.6661,-2.6694,0,0,-2.6659,-2.6659,0,0,0,0,0,0,0,0,-2.6868,-2.6864,-2.6817,-2.6813,-2.6808,-2.6765,-2.6792,-2.6762,-2.6724,-2.6754,-2.6719,-2.6717,-2.6698,-2.6694,-2.6688,-2.6691,-2.6689,-2.6659,-2.6659,-2.6659,-2.6659,0,0,0,0,0,0,0,-2.687,-2.6866,-2.6832,-2.6817,-2.6811,-2.6793,-2.6786,-2.6786,-2.6737,-2.6752,-2.6746,-2.674,-2.6695,-2.6688,-2.6686,-2.6688,-2.6659,-2.6659,-2.6658,-2.6658,-2.6712,-2.6713,0,0,0,0,0,0,-2.6879,-2.6868,-2.6834,-2.6831,-2.6834,-2.6793,-2.6786,-2.6781,-2.6737,-2.6728,-2.6742,-2.6737,-2.669,-2.6687,-2.6684,-2.6716,-2.6659,-2.6658,-2.6658,-2.671,-2.6712,-2.6714,0,0,0,0,0,0,-2.688,-2.6877,-2.6836,-2.6848,-2.6841,-2.6794,-2.679,-2.6781,-2.6774,-2.6729,-2.672,-2.6744,-2.6689,-2.6684,-2.6691,-2.6713,-2.6658,-2.6657,-2.6708,-2.671,-2.6713,-2.6783,0,0,0,0,0,0,-2.6882,-2.6878,-2.689,-2.6849,-2.6841,-2.6845,-2.6791,-2.6781,-2.6773,-2.6766,-2.6729,-2.6721,-2.6687,-2.6692,-2.669,-2.6711,-2.6657,-2.6705,-2.6709,-2.6712,-2.6779,-2.6788,-2.6796,0,0,0,0,0,-2.6884,-2.6913,-2.6891,-2.6887,-2.6855,-2.6847,-2.6842,-2.6802,-2.6775,-2.6786,-2.6757,-2.6722,-2.6711,-2.6693,-2.6691,-2.6712,-2.6704,-2.6708,-2.6712,-2.6775,-2.6786,-2.6796,0,0,0,0,0,0,-2.6959,-2.6907,-2.6882,-2.6898,-2.6877,-2.6834,-2.6847,-2.6816,-2.6802,-2.6796,-2.6747,-2.6739,-2.6751,-2.6732,-2.6713,-2.6739,-2.6702,-2.6706,-2.6751,-2.6762,-2.677,-2.6774,-2.6656,0,0,0,0,0,-2.6977,-2.6975,-2.6929,-2.6948,-2.6939,-2.6895,-2.689,-2.686,-2.6837,-2.6828,-2.6799,-2.6778,-2.6769,-2.6765,-2.6754,-2.6776,-2.6766,-2.6789,-2.6798,-2.6805,-2.6808,-2.6816,-2.6825,-2.6727,-2.6727,-2.6727,0,0,-2.7016,-2.6987,-2.6988,-2.6963,-2.6943,-2.694,-2.6888,-2.6889,-2.6886,-2.6828,-2.6831,-2.681,-2.6783,-2.6796,-2.6801,-2.6781,-2.6833,-2.681,-2.6816,-2.6816,-2.6821,-2.683,-2.6838,-2.673,-2.6729,-2.6729,0,0,-2.7083,-2.7062,-2.7074,-2.7055,-2.7025,-2.6995,-2.6998,-2.6959,-2.6942,-2.6945,-2.69,-2.6897,-2.6884,-2.6865,-2.6854,-2.6912,-2.6879,-2.6911,-2.6955,-2.6963,-2.697,-2.6977,-2.6995,-2.7003,-2.6914,-2.6914,-2.6915,0,-2.7134,-2.7129,-2.7085,-2.7087,-2.7076,-2.7022,-2.7033,-2.7017,-2.6986,-2.6979,-2.6957,-2.6938,-2.6916,-2.6923,-2.6937,-2.693,-2.6931,-2.6914,-2.6973,-2.6979,-2.6984,-2.7001,-2.7009,-2.6918,-2.6918,-2.6918,-2.6917,0,-2.7192,-2.7189,-2.7202,-2.7171,-2.7162,-2.7169,-2.7125,-2.7122,-2.7092,-2.7065,-2.7067,-2.7039,-2.702,-2.702,-2.6993,-2.7023,-2.7011,-2.6982,-2.6943,-2.6998,-2.7013,-2.702,-2.6924,-2.6923,-2.6921,-2.692,0,0,-2.7305,-2.7249,-2.7254,-2.7238,-2.7201,-2.7197,-2.7201,-2.7182,-2.7178,-2.7159,-2.7159,-2.7148,-2.712,-2.7108,-2.7078,-2.7085,-2.7129,-2.7054,-2.7053,-2.7067,-2.7157,-2.7178,-2.7186,-2.7107,-2.7108,-2.7109,-2.7159,0,-2.7364,-2.7367,-2.7326,-2.7339,-2.7334,-2.7283,-2.7285,-2.7262,-2.7236,-2.7228,-2.72,-2.7192,-2.7157,-2.7148,-2.7153,-2.7123,-2.7146,-2.7119,-2.7106,-2.7106,-2.7112,-2.7195,-2.7217,-2.7265,-2.7165,-2.7166,-2.7166,0,-2.7433,-2.7415,-2.7428,-2.7387,-2.7383,-2.7387,-2.7364,-2.7358,-2.733,-2.731,-2.7296,-2.726,-2.726,-2.7224,-2.7222,-2.7204,-2.7197,-2.7181,-2.7182,-2.7178,-2.7138,-2.7191,-2.728,-2.7286,-2.7176,-2.7175,-2.7174,0,-2.7511,-2.7491,-2.7494,-2.7483,-2.7436,-2.7439,-2.742,-2.739,-2.7381,-2.7362,-2.7355,-2.7337,-2.7327,-2.7313,-2.7273,-2.7251,-2.7275,-2.7237,-2.7257,-2.7258,-2.7264,-2.7264,-2.7351,-2.7263,-2.7262,-2.7262,-2.7262,0,-2.758,-2.7589,-2.7528,-2.7531,-2.7539,-2.7492,-2.7501,-2.7477,-2.7451,-2.7447,-2.7402,-2.7399,-2.7348,-2.7339,-2.7308,-2.731,-2.7306,-2.7289,-2.7281,-2.7292,-2.7294,-2.7285,-2.728,-2.7264,-2.7264,-2.7263,-2.7263,0,-2.7668,-2.7628,-2.7629,-2.7584,-2.7573,-2.758,-2.7542,-2.7541,-2.7512,-2.7508,-2.7504,-2.7458,-2.7445,-2.7405,-2.7382,-2.7361,-2.7371,-2.7356,-2.738,-2.7374,-2.7397,-2.7394,-2.748,-2.7487,-2.7397,-2.7398,-2.7399,0,-2.7713,-2.7719,-2.7674,-2.7668,-2.765,-2.7641,-2.763,-2.7584,-2.7575,-2.7542,-2.7546,-2.7529,-2.7513,-2.7494,-2.7459,-2.7441,-2.7424,-2.7455,-2.7421,-2.7431,-2.7421,-2.742,-2.742,-2.7462,-2.7463,-2.7464,-2.7465,0,-2.7797,-2.7777,-2.7763,-2.7742,-2.773,-2.7712,-2.769,-2.7688,-2.7636,-2.7628,-2.7613,-2.7601,-2.7577,-2.756,-2.7536,-2.7515,-2.7481,-2.7476,-2.7479,-2.749,-2.7503,-2.7494,-2.7398,-2.7474,-2.7473,-2.7472,-2.7472,-2.7472,-2.7863,-2.7865,-2.7832,-2.7818,-2.7797,-2.7778,-2.7774,-2.7744,-2.7731,-2.7707,-2.7681,-2.7669,-2.7639,-2.7603,-2.7585,-2.7574,-2.7556,-2.7562,-2.7563,-2.7564,-2.7569,-2.7506,-2.757,-2.757,-2.757,-2.7569,-2.7569,0,-2.7942,-2.7919,-2.7906,-2.7877,-2.7865,-2.7834,-2.7808,-2.78,-2.779,-2.7765,-2.7749,-2.7732,-2.7715,-2.7678,-2.7657,-2.7655,-2.7639,-2.7651,-2.765,-2.7645,-2.7587,-2.7585,-2.7665,-2.7665,-2.7665,-2.7665,-2.7665,-2.7665,-2.7982,-2.7981,-2.7957,-2.7945,-2.7922,-2.7909,-2.7896,-2.7878,-2.7857,-2.7839,-2.7824,-2.78,-2.7769,-2.7746,-2.7728,-2.7718,-2.7711,-2.7729,-2.7713,-2.7659,-2.765,-2.7641,-2.7639,-2.7728,-2.7728,-2.7771,-2.7771,-2.7772]}]]